This is the latest recevied weather packets stored in our database for station/object KQ4WWD. If no packets are shown the sender has not sent any weather packets the latest 10 day(s).
| Time | Temp. | Humidity | Pressure | Rain* | Wind** | Luminosity | Snow |
|---|---|---|---|---|---|---|---|
| 1777300046 | 25° C | 82% | 1016.5 hPa | 0 mm | - | 730 W/m² | - |
| 1777299743 | 24.44° C | 83% | 1016.6 hPa | 0 mm | - | 711 W/m² | - |
| 1777299440 | 23.89° C | 84% | 1016.3 hPa | 0 mm | - | 188 W/m² | - |
| 1777299138 | 24.44° C | 84% | 1016.5 hPa | 0 mm | - | 164 W/m² | - |
| 1777298835 | 23.89° C | 85% | 1016.4 hPa | 0 mm | - | 675 W/m² | - |
| 1777298531 | 23.89° C | 85% | 1016.3 hPa | 0 mm | - | 193 W/m² | - |
| 1777298228 | 23.89° C | 86% | 1016.5 hPa | 0 mm | - | 159 W/m² | - |
| 1777297923 | 23.89° C | 86% | 1016.3 hPa | 0 mm | - | 171 W/m² | - |
| 1777297620 | 23.89° C | 86% | 1016.3 hPa | 0 mm | - | 197 W/m² | - |
| 1777297316 | 24.44° C | 86% | 1015.9 hPa | 0 mm | - | 181 W/m² | - |
| 1777297014 | 23.89° C | 86% | 1016.1 hPa | 0 mm | - | 221 W/m² | - |
| 1777296710 | 23.33° C | 87% | 1015.8 hPa | 0 mm | - | 367 W/m² | - |
| 1777296401 | 23.33° C | 88% | 1015.8 hPa | 0 mm | - | 226 W/m² | - |
| 1777296097 | 22.78° C | 88% | 1015.9 hPa | 0 mm | - | 185 W/m² | - |
| 1777295794 | 22.78° C | 88% | 1015.9 hPa | 0 mm | - | 169 W/m² | - |
| 1777295492 | 22.78° C | 88% | 1015.9 hPa | 0 mm | - | 183 W/m² | - |
| 1777295189 | 22.78° C | 88% | 1016.1 hPa | 0 mm | - | 342 W/m² | - |
| 1777294887 | 22.78° C | 89% | 1016 hPa | 0 mm | - | 241 W/m² | - |
| 1777294587 | 22.22° C | 90% | 1015.9 hPa | 0 mm | - | 198 W/m² | - |
| 1777294284 | 22.22° C | 90% | 1015.8 hPa | 0 mm | - | 124 W/m² | - |
| 1777293980 | 22.78° C | 89% | 1015.7 hPa | 0 mm | - | 125 W/m² | - |
| 1777293677 | 22.78° C | 89% | 1015.8 hPa | 0 mm | - | 150 W/m² | - |
| 1777293371 | 22.78° C | 90% | 1015.8 hPa | 0 mm | - | 127 W/m² | - |
| 1777293068 | 22.22° C | 91% | 1015.7 hPa | 0 mm | - | 81 W/m² | - |
| 1777292767 | 21.67° C | 92% | 1015.6 hPa | 0 mm | - | 120 W/m² | - |
* Rain latest hour (hover to see other rain measurements)
** Current wind speed in m/s (hover to see current wind gust speed)